Weather History for Leesburg, VA

Change the Weather History Date:

Tuesday, January 22, 2013

  Actual Average (KIAD) Record (KIAD)
Temperature  
Mean Temperature 22 °F 33 °F  
Max Temperature 28 °F 43 °F 68 °F (1986)
Min Temperature 17 °F 24 °F -18 °F (1984)
Degree Days  
Heating Degree Days 42 32  
Month to date heating degree days 704  
Since 1 July heating degree days 2502  
Cooling Degree Days 0 0  
Month to date cooling degree days 0  
Year to date cooling degree days 0  
Moisture  
Dew Point 2 °F    
Average Humidity 44    
Maximum Humidity 55    
Minimum Humidity 34    
Precipitation  
Precipitation 0.00 in 0.09 in 1.18 in (1987)
Month to date precipitation 1.86  
Year to date precipitation 1.86  
Snow  
Snow 0.00 in 0.30 in 11.10 in (1987)
Month to date snowfall 4.8  
Since 1 July snowfall 8.8  
Snow Depth -    
Sea Level Pressure  
Sea Level Pressure 30.18 in    
Wind  
Wind Speed 15 mph (NW)    
Max Wind Speed 23 mph    
Max Gust Speed 33 mph    
Visibility 10 miles    
Events      
T = Trace of Precipitation, MM = Missing Value Source: NWS Daily Summary

Daily Weather History Graph

Daily Weather History Graph

Search for Another Location

Airport:

Trip Planner

Search our weather history database for the weather conditions in past years. The results will help you decide how hot, cold, wet, or windy it might be!

Date:

Astronomy

Jan. 22, 2013 Rise Set
Actual Time 7:24 AM EST 5:19 PM EST
Civil Twilight 6:55 AM EST 5:48 PM EST
Nautical Twilight 6:22 AM EST 6:21 PM EST
Astronomical Twilight 5:51 AM EST 6:53 PM EST
Moon 1:41 PM EST (1/22) 3:43 AM EST (1/22)
Length of Visible Light 10h 53m
Length of Day
9h 55m
Waxing Gibbous, 82% of the Moon is Illuminated
Jan 22
Waxing Gibbous
Jan 26
Full
Feb 3
Last Quarter
Feb 10
New
Feb 17
First Quarter

Hourly Weather History & Observations

Time (EST) Temp. Windchill Dew Point Humidity Pressure Visibility Wind Dir Wind Speed Gust Speed Precip Events Conditions
12:15 AM 28.4 °F 18.0 °F 14.0 °F 55% 29.97 in 10.0 mi NW 12.7 mph 31.1 mph N/A   Mostly Cloudy
12:35 AM 28.4 °F 17.5 °F 14.0 °F 55% 29.97 in 10.0 mi NW 13.8 mph 21.9 mph N/A   Scattered Clouds
12:55 AM 28.4 °F 17.5 °F 12.2 °F 51% 29.98 in 10.0 mi NW 13.8 mph 21.9 mph N/A   Mostly Cloudy
1:15 AM 26.6 °F 15.2 °F 10.4 °F 51% 29.98 in 10.0 mi NW 13.8 mph 29.9 mph N/A   Scattered Clouds
1:35 AM 26.6 °F 12.0 °F 10.4 °F 51% 30.00 in 10.0 mi NNW 23.0 mph 29.9 mph N/A   Mostly Cloudy
1:55 AM 24.8 °F 11.5 °F 6.8 °F 46% 30.02 in 10.0 mi NW 17.3 mph 32.2 mph N/A   Mostly Cloudy
2:15 AM 23.0 °F 8.3 °F 6.8 °F 50% 30.03 in 10.0 mi NW 19.6 mph 32.2 mph N/A   Scattered Clouds
2:55 AM 23.0 °F 9.2 °F 5.0 °F 46% 30.04 in 10.0 mi NW 17.3 mph 32.2 mph N/A   Clear
3:15 AM 23.0 °F 8.7 °F 3.2 °F 43% 30.04 in 10.0 mi NW 18.4 mph 33.4 mph N/A   Clear
3:35 AM 23.0 °F 8.7 °F 1.4 °F 39% 30.05 in 10.0 mi NW 18.4 mph 31.1 mph N/A   Clear
3:55 AM 21.2 °F 6.0 °F -0.4 °F 39% 30.06 in 10.0 mi NW 19.6 mph 32.2 mph N/A   Clear
4:15 AM 21.2 °F 8.3 °F 1.4 °F 42% 30.06 in 10.0 mi NW 13.8 mph 31.1 mph N/A   Clear
4:35 AM 21.2 °F 7.3 °F 3.2 °F 46% 30.07 in 10.0 mi NW 16.1 mph 25.3 mph N/A   Clear
4:55 AM 19.4 °F 3.2 °F 3.2 °F 49% 30.08 in 10.0 mi NW 20.7 mph 25.3 mph N/A   Clear
5:15 AM 19.4 °F 2.5 °F 1.4 °F 46% 30.09 in 10.0 mi WNW 23.0 mph 31.1 mph N/A   Clear
5:35 AM 19.4 °F 5.0 °F 1.4 °F 46% 30.10 in 10.0 mi WNW 16.1 mph 27.6 mph N/A   Clear
5:55 AM 19.4 °F 4.1 °F 1.4 °F 46% 30.11 in 10.0 mi NW 18.4 mph 28.8 mph N/A   Clear
6:15 AM 19.4 °F 4.1 °F 1.4 °F 46% 30.12 in 10.0 mi NW 18.4 mph 27.6 mph N/A   Clear
6:35 AM 19.4 °F 6.0 °F 3.2 °F 49% 30.13 in 10.0 mi WNW 13.8 mph 24.2 mph N/A   Clear
6:55 AM 19.4 °F 7.2 °F 3.2 °F 49% 30.15 in 10.0 mi NW 11.5 mph 16.1 mph N/A   Clear
7:15 AM 17.6 °F 2.7 °F 3.2 °F 53% 30.16 in 10.0 mi WNW 16.1 mph 24.2 mph N/A   Clear
7:35 AM 17.6 °F 5.7 °F 1.4 °F 49% 30.18 in 10.0 mi NW 10.4 mph 23.0 mph N/A   Clear
7:55 AM 17.6 °F 3.2 °F 1.4 °F 49% 30.18 in 10.0 mi NW 15.0 mph 23.0 mph N/A   Scattered Clouds
8:15 AM 19.4 °F 6.0 °F 1.4 °F 46% 30.20 in 10.0 mi NW 13.8 mph 19.6 mph N/A   Scattered Clouds
8:35 AM 19.4 °F 7.9 °F 1.4 °F 46% 30.21 in 10.0 mi WNW 10.4 mph - N/A   Scattered Clouds
8:55 AM 19.4 °F 5.0 °F 1.4 °F 46% 30.21 in 10.0 mi NW 16.1 mph 25.3 mph N/A   Scattered Clouds
9:15 AM 19.4 °F 5.0 °F 1.4 °F 46% 30.21 in 10.0 mi WNW 16.1 mph 24.2 mph N/A   Scattered Clouds
9:35 AM 21.2 °F 9.5 °F 1.4 °F 42% 30.22 in 10.0 mi NW 11.5 mph 25.3 mph N/A   Scattered Clouds
9:55 AM 19.4 °F 3.6 °F -0.4 °F 42% 30.23 in 10.0 mi NW 19.6 mph 25.3 mph N/A   Scattered Clouds
10:15 AM 21.2 °F 6.4 °F 1.4 °F 42% 30.23 in 10.0 mi WNW 18.4 mph 25.3 mph N/A   Clear
10:35 AM 21.2 °F 7.3 °F 1.4 °F 42% 30.23 in 10.0 mi WNW 16.1 mph 27.6 mph N/A   Scattered Clouds
10:55 AM 21.2 °F 5.2 °F 1.4 °F 42% 30.23 in 10.0 mi WNW 21.9 mph 27.6 mph N/A   Mostly Cloudy
11:15 AM 19.4 °F 5.5 °F -0.4 °F 42% 30.23 in 10.0 mi WNW 15.0 mph 21.9 mph N/A   Mostly Cloudy
11:35 AM 23.0 °F 11.1 °F -0.4 °F 36% 30.23 in 10.0 mi WNW 12.7 mph 26.5 mph N/A   Mostly Cloudy
11:55 AM 23.0 °F 8.3 °F -0.4 °F 36% 30.21 in 10.0 mi NW 19.6 mph 25.3 mph N/A   Scattered Clouds
12:15 PM 23.0 °F 9.2 °F 1.4 °F 39% 30.20 in 10.0 mi WNW 17.3 mph 25.3 mph N/A   Mostly Cloudy
12:35 PM 23.0 °F 10.6 °F -0.4 °F 36% 30.19 in 10.0 mi WNW 13.8 mph 23.0 mph N/A   Scattered Clouds
12:55 PM 23.0 °F 8.7 °F -0.4 °F 36% 30.19 in 10.0 mi WNW 18.4 mph 25.3 mph N/A   Scattered Clouds
1:15 PM 24.8 °F 11.9 °F -0.4 °F 34% 30.18 in 10.0 mi WNW 16.1 mph 27.6 mph N/A   Scattered Clouds
1:35 PM 23.0 °F 10.6 °F 1.4 °F 39% 30.17 in 10.0 mi NW 13.8 mph 24.2 mph N/A   Clear
1:55 PM 24.8 °F 11.9 °F 1.4 °F 36% 30.18 in 10.0 mi West 16.1 mph 23.0 mph N/A   Scattered Clouds
2:15 PM 23.0 °F 9.2 °F 1.4 °F 39% 30.18 in 10.0 mi WNW 17.3 mph 27.6 mph N/A   Clear
2:35 PM 23.0 °F 11.1 °F -0.4 °F 36% 30.18 in 10.0 mi NW 12.7 mph 29.9 mph N/A   Clear
2:55 PM 24.8 °F 10.7 °F 1.4 °F 36% 30.18 in 10.0 mi NW 19.6 mph 26.5 mph N/A   Clear
3:15 PM 24.8 °F 11.5 °F -0.4 °F 34% 30.19 in 10.0 mi WNW 17.3 mph 29.9 mph N/A   Clear
3:35 PM 23.0 °F 10.1 °F -0.4 °F 36% 30.19 in 10.0 mi NW 15.0 mph 23.0 mph N/A   Clear
3:55 PM 23.0 °F 9.2 °F -0.4 °F 36% 30.19 in 10.0 mi NW 17.3 mph 25.3 mph N/A   Clear
4:15 PM 23.0 °F 10.1 °F -0.4 °F 36% 30.20 in 10.0 mi WNW 15.0 mph 20.7 mph N/A   Clear
4:35 PM 23.0 °F 9.6 °F -0.4 °F 36% 30.21 in 10.0 mi NW 16.1 mph 20.7 mph N/A   Clear
4:55 PM 21.2 °F 10.9 °F -0.4 °F 39% 30.21 in 10.0 mi NW 9.2 mph - N/A   Clear
5:15 PM 21.2 °F 9.5 °F 1.4 °F 42% 30.22 in 10.0 mi NW 11.5 mph - N/A   Clear
5:35 PM 21.2 °F 8.3 °F 1.4 °F 42% 30.23 in 10.0 mi NW 13.8 mph 19.6 mph N/A   Clear
5:55 PM 21.2 °F 8.9 °F 1.4 °F 42% 30.24 in 10.0 mi NW 12.7 mph - N/A   Clear
6:15 PM 21.2 °F 8.9 °F 1.4 °F 42% 30.25 in 10.0 mi NNW 12.7 mph - N/A   Clear
6:35 PM 19.4 °F 6.6 °F 1.4 °F 46% 30.25 in 10.0 mi NNW 12.7 mph - N/A   Clear
6:55 PM 21.2 °F 8.9 °F 1.4 °F 42% 30.25 in 10.0 mi NNW 12.7 mph 19.6 mph N/A   Clear
7:15 PM 19.4 °F 6.0 °F 1.4 °F 46% 30.26 in 10.0 mi NNW 13.8 mph - N/A   Clear
7:35 PM 19.4 °F 9.5 °F 1.4 °F 46% 30.26 in 10.0 mi NW 8.1 mph 18.4 mph N/A   Clear
7:55 PM 19.4 °F 7.9 °F 1.4 °F 46% 30.26 in 10.0 mi NNW 10.4 mph 16.1 mph N/A   Clear
8:15 PM 19.4 °F 9.5 °F 1.4 °F 46% 30.27 in 10.0 mi North 8.1 mph - N/A   Clear
8:35 PM 19.4 °F 7.9 °F 3.2 °F 49% 30.27 in 10.0 mi North 10.4 mph - N/A   Clear
8:55 PM 19.4 °F 12.8 °F 3.2 °F 49% 30.27 in 10.0 mi NNE 4.6 mph - N/A   Clear
9:15 PM 19.4 °F 12.8 °F 3.2 °F 49% 30.28 in 10.0 mi NNE 4.6 mph - N/A   Clear
9:35 PM 19.4 °F 10.4 °F 3.2 °F 49% 30.28 in 10.0 mi North 6.9 mph - N/A   Clear
9:55 PM 19.4 °F 8.6 °F 3.2 °F 49% 30.29 in 10.0 mi North 9.2 mph - N/A   Clear
10:15 PM 19.4 °F 10.4 °F 3.2 °F 49% 30.29 in 10.0 mi NNW 6.9 mph - N/A   Clear
10:35 PM 19.4 °F 10.4 °F 3.2 °F 49% 30.29 in 10.0 mi NNW 6.9 mph - N/A   Clear
10:55 PM 19.4 °F 7.9 °F 3.2 °F 49% 30.29 in 10.0 mi NW 10.4 mph - N/A   Clear
11:15 PM 19.4 °F 12.8 °F 3.2 °F 49% 30.29 in 10.0 mi NNW 4.6 mph - N/A   Clear
11:35 PM 17.6 °F 12.3 °F 3.2 °F 53% 30.29 in 10.0 mi North 3.5 mph - N/A   Clear
11:55 PM 17.6 °F 9.3 °F 3.2 °F 53% 30.29 in 10.0 mi NNW 5.8 mph - N/A   Clear